#timestamp,LO_Frequency,Hit,StdDev 
1524816015.3,286046997.7,N
1524816035.1,286046994.6,Y
1524816055.9,286046992.0,P
1524816075.7,286046994.3,N
1524816095.6,286046992.2,N
1524816115.4,286046990.3,Y
1524816135.2,286046999.1,P
1524816155.1,286047001.1,N
1524816156.0,286047001.1,N
1524816175.8,286046998.1,N
1524816195.6,286047000.2,N
1524816215.5,286046998.6,N
1524816235.3,286046998.4,N
1524816255.2,286047000.7,N
1524816275.9,286047000.7,N
1524816295.7,286046996.6,N
1524816315.6,286046997.1,N
1524816335.4,286046995.5,N
1524816355.2,286046994.7,N
1524816375.1,286046995.1,N
1524816376.0,286046995.1,N
1524816395.8,286046997.7,N
1524816415.7,286046995.3,N
1524816435.5,286046996.9,N
1524816455.3,286046999.3,N
1524816475.2,286046996.7,N
1524816495.0,286046999.2,N
1524816495.9,286046999.2,N
1524816515.8,286046997.7,N
1524816535.6,286046998.0,N
1524816555.4,286046997.9,N
1524816575.3,286046995.1,N
1524816595.1,286046994.9,N
1524816615.8,286046995.3,N
1524816635.7,286046995.4,N
1524816655.5,286046994.9,N
1524816675.4,286046997.8,N
1524816695.2,286046996.5,N
1524816715.0,286046993.9,Y
1524816715.9,286046993.9,P
1524816735.8,286046996.9,N
1524816755.6,286046995.1,P
1524816775.4,286046997.6,N
1524816795.3,286046996.1,N
1524816815.1,286046994.5,Y
1524816835.9,286046996.5,P
1524816855.7,286047003.4,P
1524816875.5,286047001.6,N
1524816895.4,286047000.6,N
1524816915.2,286046997.8,N
1524816935.1,286046994.9,N
1524816936.0,286046994.9,N
1524816955.8,286046995.9,N
1524816975.6,286046992.4,N
1524816995.5,286046993.9,N
1524817015.3,286046996.4,N
1524817035.1,286046993.3,N
1524817055.9,286046994.6,N
1524817075.7,286046995.2,N
1524817095.6,286046996.9,N
1524817115.4,286046997.6,N
1524817135.2,286046993.5,N
1524817155.1,286046993.4,N
1524817156.0,286046993.4,N
1524817175.8,286046997.3,N
1524817195.7,286046997.7,N
1524817215.5,286046994.1,N
1524817235.3,286046994.7,N
1524817255.2,286046993.4,N
1524817275.0,286046996.0,N
1524817275.9,286046996.0,N
1524817295.7,286046995.7,N
1524817315.6,286046997.2,N
1524817335.4,286046995.6,N
1524817355.3,286046998.0,N
1524817375.1,286046995.4,N
1524817395.8,286046991.8,Y
1524817415.7,286046997.0,P
1524817435.5,286046996.5,P
1524817455.4,286046995.8,P
1524817475.2,286046992.5,Y
1524817495.0,286046994.9,P
1524817495.9,286046994.9,P
1524817515.8,286046997.6,P
1524817535.6,286046997.5,N
1524817555.5,286046996.6,N
1524817575.3,286046998.6,N
1524817595.1,286047001.0,N
1524817615.9,286046998.1,N
1524817635.7,286047004.4,N
1524817655.5,286047001.8,N
1524817675.4,286047002.8,N
1524817695.2,286047001.7,N
1524817715.1,286047002.1,N
1524817716.0,286047002.1,N
1524817735.8,286046998.6,N
1524817755.6,286046999.3,N
1524817775.5,286046998.2,N
1524817795.3,286046998.2,N
1524817815.1,286047000.2,N
1524817835.9,286046999.7,N
1524817855.7,286047000.0,N
1524817875.6,286047000.1,N
1524817895.4,286047001.5,N
1524817915.2,286047003.4,N
1524817935.1,286047005.6,N
1524817936.0,286047005.6,N
1524817955.8,286047006.0,N
1524817975.7,286047003.8,N
1524817995.5,286047003.9,N
1524818015.3,286047001.0,N
1524818035.2,286047001.1,N
1524818055.0,286047000.8,N
1524818055.9,286047000.8,N
1524818075.7,286047000.1,N
1524818095.6,286046999.8,N
1524818115.4,286047000.8,N
1524818135.3,286046998.1,N
1524818155.1,286046999.8,N
1524818156.0,286046999.8,N
1524818175.8,286047003.5,N
1524818195.7,286047001.9,N
1524818215.5,286047000.4,N
1524818235.4,286047001.1,N
1524818255.2,286046998.1,N
1524818275.0,286047000.7,N
1524818275.9,286047000.7,N
1524818295.8,286047000.2,N
1524818315.6,286047000.1,N
1524818335.4,286047000.2,N
1524818355.3,286046999.7,N
1524818375.1,286047001.6,N
1524818395.9,286047002.5,N
1524818415.7,286047001.9,N
1524818435.5,286047004.4,N
1524818455.4,286047004.2,N
1524818475.2,286047003.2,N
1524818495.1,286047007.3,Y
1524818496.0,286047007.3,P
1524818515.8,286047003.0,N
1524818535.6,286047003.5,N
1524818555.5,286047003.8,N
1524818575.3,286047003.8,N
1524818595.1,286047003.9,N
1524818615.9,286047001.8,N
1524818635.7,286047000.1,N
1524818655.6,286047001.9,N
1524818675.4,286047002.2,N
1524818695.2,286047002.4,N
1524818715.1,286047002.3,N
1524818716.0,286047002.3,N
1524818735.8,286047001.7,N
1524818755.6,286047004.2,N
1524818775.5,286047003.2,N
1524818795.3,286047003.6,N
1524818815.2,286047005.6,Y
1524818835.9,286047001.8,P
1524818855.7,286046998.1,P
1524818875.6,286046997.8,N
1524818895.4,286046995.1,N
1524818915.3,286046996.0,N
1524818935.1,286046995.8,N
1524818936.0,286046995.8,N
1524818955.8,286046996.3,N
1524818975.7,286046997.6,N
1524818995.5,286046998.8,N
1524819015.3,286046997.5,N
1524819035.2,286046997.7,N
1524819055.0,286046998.7,N
1524819055.9,286046998.7,N
1524819075.8,286046998.9,N
1524819095.6,286047001.2,N
1524819115.4,286047003.7,N
1524819135.3,286047007.5,Y
1524819155.1,286047010.6,P
1524819175.9,286047011.5,N
1524819195.7,286047015.2,N
1524819215.5,286047014.1,N
1524819235.4,286047017.1,N
1524819255.2,286047014.2,N
1524819275.0,286047016.4,N
1524819275.9,286047016.4,N
1524819295.8,286047018.8,Y
1524819315.6,286047005.0,P
1524819335.5,286047007.3,N
1524819355.3,286047006.6,N
1524819375.1,286047007.9,N
1524819395.9,286047009.1,Y
1524819415.7,286046999.9,P
1524819435.5,286047004.4,N
1524819455.4,286047003.0,N
1524819475.2,286047003.0,N
1524819495.1,286047003.4,N
1524819496.0,286047003.4,N
1524819515.8,286047001.9,N
1524819535.6,286047004.4,N
1524819555.5,286047004.0,N
1524819575.3,286047003.7,N
1524819595.2,286047006.0,Y
